Location: Newark
(46.7000°N, 60.6000°W)
Time: 00:18:05
(UTC+00:00)

Vanguard 1 - Pass Details

Date: 29 October 2020
Orbit: 650 x 3833 km, 34.2° (Epoch: 23 November)

Event Time Altitude Azimuth Distance (km) Brightness Sun altitude
Rises 21:11:15 0° 275° (W) 7,966 16.3 -4.2°
Reaches altitude 10° 21:17:20 10° 270° (W) 6,816 15.9 -5.2°
Maximum altitude 21:36:19 42° 210° (SSW) 3,709 13.4 -8.4°
Drops below altitude 10° 21:48:29 10° 145° (SE) 4,456 13.2 -10.4°
Sets 21:51:32 0° 138° (SE) 5,089 13.4 -10.9°
